TOM1BV EGSS-LFLB

Flight info

Callsign TOM1BV
Flight time N/A
Altitude 35000
Route NUGBO M183 SILVA Q41 COWLY UL612 OGULO DCT OKASI DCT OKEKO DCT OKIRA DCT MOU DCT FEDZI
Aircraft B738/M-SDE2E3FGHIRWXY/LB1

Departure

Time N/A
Airport London Stansted Airport (EGSS)

Arrival

Time 2026-04-21 16:18
Airport Chambéry Aix les Bains airport (LFLB)
Time Latitude Longitude Altitude Speed Heading
2026-04-21 16:10 45.81741 5.51409 13183 ft 315 kts 27°
2026-04-21 16:10 45.83561 5.53064 12836 ft 305 kts 27°
2026-04-21 16:11 45.85325 5.54674 12441 ft 297 kts 29°
2026-04-21 16:11 45.86816 5.56738 11929 ft 305 kts 56°
2026-04-21 16:11 45.87475 5.59618 11469 ft 308 kts 83°
2026-04-21 16:11 45.87349 5.62636 11034 ft 306 kts 97°
2026-04-21 16:12 45.87138 5.64666 10699 ft 304 kts 98°
2026-04-21 16:12 45.86709 5.68665 9928 ft 304 kts 96°
2026-04-21 16:12 45.86550 5.71721 9003 ft 312 kts 91°
2026-04-21 16:12 45.86459 5.74856 7873 ft 316 kts 90°
2026-04-21 16:13 45.86361 5.77989 6760 ft 311 kts 90°
2026-04-21 16:13 45.86241 5.81036 5717 ft 301 kts 94°
2026-04-21 16:13 45.85569 5.83752 5309 ft 281 kts 126°
2026-04-21 16:13 45.84114 5.85315 5184 ft 250 kts 156°
2026-04-21 16:14 45.82564 5.86021 5146 ft 218 kts 165°
2026-04-21 16:14 45.81150 5.86427 5181 ft 202 kts 169°
2026-04-21 16:14 45.79762 5.86697 5115 ft 203 kts 174°
2026-04-21 16:14 45.78340 5.86845 4789 ft 213 kts 176°
2026-04-21 16:15 45.76850 5.86966 4376 ft 209 kts 176°
2026-04-21 16:15 45.75443 5.87073 3966 ft 201 kts 176°
2026-04-21 16:15 45.74065 5.87188 3568 ft 191 kts 176°
2026-04-21 16:15 45.72802 5.87292 3199 ft 177 kts 177°
2026-04-21 16:16 45.71614 5.87389 2867 ft 164 kts 177°
2026-04-21 16:16 45.70523 5.87478 2539 ft 152 kts 177°
2026-04-21 16:16 45.69486 5.87563 2262 ft 147 kts 177°
2026-04-21 16:16 45.68438 5.87648 1967 ft 151 kts 178°
2026-04-21 16:17 45.67374 5.87736 1716 ft 152 kts 178°
2026-04-21 16:17 45.66325 5.87832 1355 ft 151 kts 178°
2026-04-21 16:17 45.65638 5.87883 1103 ft 147 kts 175°
2026-04-21 16:17 45.64638 5.87959 818 ft 141 kts 177°
2026-04-21 16:18 45.63754 5.88031 781 ft 107 kts 178°
2026-04-21 16:18 45.63359 5.88059 782 ft 36 kts 176°
2026-04-21 16:18 45.63151 5.88139 784 ft 18 kts 99°
2026-04-21 16:18 45.63178 5.88249 782 ft 17 kts 41°
2026-04-21 16:19 45.63287 5.88266 782 ft 15 kts 356°
2026-04-21 16:19 45.63387 5.88256 782 ft 14 kts 357°
2026-04-21 16:19 45.63480 5.88249 782 ft 13 kts 357°
2026-04-21 16:19 45.63566 5.88245 782 ft 12 kts 357°
2026-04-21 16:20 45.63645 5.88239 782 ft 11 kts 357°
2026-04-21 16:20 45.63719 5.88233 782 ft 10 kts 355°
2026-04-21 16:20 45.63787 5.88232 782 ft 9 kts
2026-04-21 16:20 45.63833 5.88244 782 ft 6 kts
2026-04-21 16:21 45.63838 5.88248 782 ft 0 kts 27°
2026-04-21 16:21 45.63839 5.88249 782 ft 0 kts 28°
2026-04-21 16:21 45.63852 5.88272 782 ft 7 kts 69°
2026-04-21 16:21 45.63851 5.88290 782 ft 1 kts 100°
2026-04-21 16:22 45.63850 5.88300 782 ft 0 kts 97°
2026-04-21 16:22 45.63850 5.88325 782 ft 0 kts 88°
2026-04-21 16:23 45.63850 5.88324 782 ft 0 kts 88°